Weather History for KSJT - November, 2011

Change the Weather History Date:

Wednesday, November 16, 2011

  Actual Average Record
Temperature  
Mean Temperature 58 °F 55 °F  
Max Temperature 74 °F 68 °F 83 °F (1921)
Min Temperature 42 °F 42 °F 18 °F (1916)
Degree Days  
Heating Degree Days 7 10  
Month to date heating degree days 92 126  
Since 1 July heating degree days 157 217  
Cooling Degree Days 0 0  
Month to date cooling degree days 35 15  
Year to date cooling degree days 3748 2499  
Growing Degree Days 8 (Base 50)    
Moisture  
Dew Point 35 °F    
Average Humidity 48    
Maximum Humidity 70    
Minimum Humidity 25    
Precipitation  
Precipitation 0.00 in 0.03 in 1.96 in (2004)
Month to date precipitation 0.30 0.74  
Year to date precipitation 8.22 20.00  
Snow  
Snow 0.00 in 0.00 in 1.80 in (1980)
Month to date snowfall 0.0 0.1  
Since 1 July snowfall 0.0 0.1  
Snow Depth 0.00 in    
Sea Level Pressure  
Sea Level Pressure 30.02 in    
Wind  
Wind Speed 9 mph (North)    
Max Wind Speed 23 mph    
Max Gust Speed 26 mph    
Visibility 10 miles    
Events      
T = Trace of Precipitation, MM = Missing Value Source: NWS Daily Summary

Daily Weather History Graph

Daily Weather History Graph

Search for Another Location

Airport or City:

Trip Planner

Search our weather history database for the weather conditions in past years. The results will help you decide how hot, cold, wet, or windy it might be!

Date:

Astronomy

Nov. 16, 2011 Rise Set
Actual Time 7:10 AM CST 5:42 PM CST
Civil Twilight 6:44 AM CST 6:08 PM CST
Nautical Twilight 6:15 AM CST 6:38 PM CST
Astronomical Twilight 5:46 AM CST 7:06 PM CST
Moon 10:55 PM CST (11/16) 11:49 AM CST (11/16)
Length of Visible Light 11h 24m
Length of Day
10h 32m
Waning Gibbous, 70% of the Moon is Illuminated
Nov 16
Waning Gibbous
Nov 18
Last Quarter
Nov 25
New
Dec 2
First Quarter
Dec 10
Full

Hourly Weather History & Observations

Time (CST) Temp. Windchill Dew Point Humidity Pressure Visibility Wind Dir Wind Speed Gust Speed Precip Events Conditions
12:51 AM 53.1 °F - 36.0 °F 52% 29.81 in 10.0 mi Calm Calm - N/A   Clear
1:51 AM 54.0 °F - 37.9 °F 55% 29.81 in 10.0 mi Calm Calm - N/A   Clear
2:51 AM 48.0 °F - 35.1 °F 61% 29.81 in 10.0 mi Calm Calm - N/A   Clear
3:51 AM 45.0 °F 43.5 °F 34.0 °F 65% 29.81 in 10.0 mi North 3.5 mph - N/A   Clear
4:51 AM 43.0 °F - 34.0 °F 71% 29.83 in 10.0 mi Calm Calm - N/A   Clear
5:51 AM 44.1 °F 40.1 °F 34.0 °F 68% 29.87 in 10.0 mi West 6.9 mph - N/A   Clear
6:51 AM 45.0 °F 40.1 °F 34.0 °F 65% 29.91 in 10.0 mi West 9.2 mph - N/A   Clear
7:51 AM 46.9 °F - 35.1 °F 63% 29.94 in 10.0 mi WNW 6.9 mph - N/A   Clear
8:51 AM 54.0 °F - 37.9 °F 55% 29.96 in 10.0 mi Calm Calm - N/A   Clear
9:51 AM 59.0 °F - 39.0 °F 48% 29.98 in 10.0 mi NNW 5.8 mph - N/A   Clear
10:51 AM 62.1 °F - 39.0 °F 43% 29.99 in 10.0 mi North 3.5 mph - N/A   Clear
11:51 AM 66.9 °F - 37.9 °F 34% 29.98 in 10.0 mi Variable 5.8 mph - N/A   Clear
12:51 PM 71.1 °F - 36.0 °F 28% 29.96 in 10.0 mi WNW 10.4 mph 18.4 mph N/A   Clear
1:51 PM 73.0 °F - 36.0 °F 26% 29.96 in 10.0 mi NW 15.0 mph 19.6 mph N/A   Clear
2:51 PM 72.0 °F - 37.0 °F 28% 29.99 in 10.0 mi North 17.3 mph - N/A   Clear
3:51 PM 69.1 °F - 39.0 °F 33% 30.03 in 10.0 mi North 12.7 mph - N/A   Clear
4:51 PM 66.0 °F - 39.9 °F 38% 30.08 in 10.0 mi North 16.1 mph 24.2 mph N/A   Clear
5:51 PM 59.0 °F - 37.9 °F 46% 30.14 in 10.0 mi North 17.3 mph - N/A   Clear
6:51 PM 55.0 °F - 37.0 °F 51% 30.20 in 10.0 mi NNE 17.3 mph - N/A   Clear
7:51 PM 53.1 °F - 36.0 °F 52% 30.25 in 10.0 mi NNE 11.5 mph - N/A   Clear
8:51 PM 51.1 °F - 32.0 °F 48% 30.28 in 10.0 mi NNE 16.1 mph 23.0 mph N/A   Clear
9:51 PM 48.9 °F - 30.0 °F 48% 30.32 in 10.0 mi NNE 11.5 mph - N/A   Clear
10:51 PM 48.0 °F - 27.0 °F 44% 30.33 in 10.0 mi NNE 15.0 mph - N/A   Clear
11:51 PM 45.0 °F 39.3 °F 25.0 °F 46% 30.35 in 10.0 mi NNE 11.5 mph - N/A   Clear